Bodensee (Kressbronn): 5,0°C  -  Teich der Wetterzentrale Bad Schussenried: 4,4°C  
23.01.2020Höhe
ü. NN
ZeitTemperatur (°C)Nieder-
schlag
Luft-
feuchte
Luft-
druck
Wind
StationaktuellMinimumMaximumaktuellMaximum
Aldingen654 m04:31-6,8-7,5 (23:43)-5,9 (14:46)0,0 l/m²93%1035,80,0 km/h (0 Bft) W7,4 km/h (2 Bft) N-NO (15:28)
Allmannsweiler625 m04:30-5,1-5,1 (04:15)-4,3 (00:20)0,0 l/m²97%1035,09,7 km/h (2 Bft) O12,9 km/h (3 Bft) NO (04:25)
Allmendingen541 m04:30-3,5-3,8 (02:05)-3,3 (14:55)0,0 l/m²93%1035,217,7 km/h (3 Bft) NO17,7 km/h (3 Bft) O-NO (04:30)
Altshausen574 m04:30-4,6-4,7 (04:09)-4,3 (00:46)0,0 l/m²84%1033,58,0 km/h (2 Bft) N-NO14,5 km/h (3 Bft) O (01:39)
Amstetten-Reutti663 m04:30-3,6-4,6 (08:00)-3,6 (14:50)0,0 l/m²96%1034,811,3 km/h (2 Bft) O14,5 km/h (3 Bft) O (02:35)
Amtzell-Grenis677 m04:30-4,8-5,2 (02:35)-4,2 (00:00)0,0 l/m²81%1035,98,0 km/h (2 Bft) W-SW16,1 km/h (3 Bft) N-NO (01:05)
Aulendorf570 m04:30-4,7-4,7 (03:48)-4,1 (00:55)0,0 l/m²92%1034,36,4 km/h (2 Bft) N-NO14,5 km/h (3 Bft) NO (03:55)
Bad Krozingen233 m04:30-2,7-2,7 (06:20)-2,4 (16:20)0,0 l/m²97%1035,64,9 km/h (1 Bft) NO13,2 km/h (3 Bft) NO (16:31)
Bad Saulgau595 m04:30-4,9-4,9 (06:45)-4,3 (14:35)0,0 l/m²94%1033,90,0 km/h (0 Bft) S-SW6,4 km/h (2 Bft) SW (00:30)
Bad Saulgau, Bernhauser Weg594 m04:29-4,7-4,7 (04:12)-4,0 (00:38)0,0 l/m²95%1036,29,7 km/h (2 Bft) NO16,1 km/h (3 Bft) N (03:54)
Bad Saulgau-Lampertsweiler627 m04:30-4,9-5,1 (04:25)-4,2 (00:40)0,0 l/m²91%1037,411,3 km/h (2 Bft) NO14,5 km/h (3 Bft) NO (03:45)
Bad Schussenried572 m04:30-4,3-4,3 (04:15)-3,9 (00:25)0,0 l/m²97%1033,411,3 km/h (2 Bft) O-NO14,5 km/h (3 Bft) O-NO (04:20)
Bergatreute615 m04:30-4,5-4,5 (04:30)-4,0 (00:35)0,0 l/m²97%1034,36,4 km/h (2 Bft) NO12,9 km/h (3 Bft) NO (00:45)
Biberach (Riss), Boehringer533 m04:40-3,9-4,1 (04:30)-3,6 (01:00)0,0 l/m²95%1032,42,9 km/h (1 Bft) O20,5 km/h (4 Bft) N-NW (00:20)
Biberach (Riss), Realschule553 m04:30-4,6-4,6 (03:25)-4,1 (00:00)0,0 l/m²95%1036,112,9 km/h (3 Bft) NO19,3 km/h (3 Bft) O-NO (00:20)
Burgrieden523 m04:30-4,1-4,4 (02:00)-4,0 (00:10)0,0 l/m²91%1035,211,3 km/h (2 Bft) O-NO17,7 km/h (3 Bft) N-NO (00:10)
Burgrieden-Hochstetten510 m04:30-3,7-4,0 (01:15)-3,5 (15:40)0,0 l/m²94%1035,59,7 km/h (2 Bft) O-SO17,7 km/h (3 Bft) O (23:30)
Ebersbach579 m04:30-4,7-4,7 (04:30)-4,2 (00:35)0,0 l/m²96%1035,78,0 km/h (2 Bft) NO19,3 km/h (3 Bft) NO (01:00)
Ebersbach-Boos605 m04:30-5,1-5,1 (04:20)-4,4 (00:50)0,0 l/m²97%1035,616,1 km/h (3 Bft) O16,1 km/h (3 Bft) N-NO (00:50)
Ebersbach-Menzenweiler661 m04:30-5,3-5,3 (04:20)-4,7 (00:50)0,0 l/m²97%1035,66,4 km/h (2 Bft) O-NO14,5 km/h (3 Bft) O-NO (00:35)
Ehingen535 m00:05-3,7-3,7 (00:05)-3,6 (00:00)0,0 l/m²90%1036,415,3 km/h (3 Bft) N15,3 km/h (3 Bft) N (00:05)
Erlenmoos645 m04:30-4,8-4,8 (03:10)-3,7 (00:55)0,0 l/m²92%1035,38,0 km/h (2 Bft) O-NO11,3 km/h (2 Bft) O (00:25)
Ertingen569 m04:30-4,7-4,7 (03:35)-4,0 (00:00)0,0 l/m²96%1035,18,0 km/h (2 Bft) N16,1 km/h (3 Bft) N-NW (00:00)
Friedrichshafen405 m04:30-2,6-2,7 (01:50)-1,6 (13:50)0,0 l/m²92%1035,06,4 km/h (2 Bft) N-NO20,9 km/h (4 Bft) NO (01:45)
Günzburg443 m04:30-2,6-3,4 (00:00)-2,6 (04:25)0,0 l/m²93%1032,86,4 km/h (2 Bft) O-NO11,3 km/h (2 Bft) N-NO (02:40)
Hochdorf-Appendorf537 m04:30-4,8-4,8 (04:10)-3,9 (00:10)0,0 l/m²76%1034,819,3 km/h (3 Bft) NO20,9 km/h (4 Bft) N-NO (01:05)
Höchsten802 m04:30-6,3-6,3 (00:05)-5,9 (02:25)0,0 l/m²92%1032,212,9 km/h (3 Bft) N-NO17,7 km/h (3 Bft) N-NO (00:00)
Horgenzell618 m04:30-5,1-5,2 (00:55)-4,7 (00:00)0,0 l/m²95%1033,33,2 km/h (1 Bft) O17,7 km/h (3 Bft) NO (00:20)
Hoßkirch632 m04:30-5,1-5,1 (04:25)-4,6 (01:05)0,0 l/m²95%1033,911,3 km/h (2 Bft) O-NO16,1 km/h (3 Bft) NO (00:15)
Isny, Am Dreifingerbach695 m04:30-6,2-6,2 (04:30)-4,3 (01:10)0,0 l/m²94%1033,80,0 km/h (0 Bft) NO11,3 km/h (2 Bft) N-NO (01:10)
Isny, Weidachweg706 m04:30-6,6-6,7 (04:20)-4,4 (00:30)0,0 l/m²90%1035,70,0 km/h (0 Bft) O-SO16,1 km/h (3 Bft) N (00:05)
Kappel-Grafenhausen163 m04:25-1,7-1,8 (03:15)-1,2 (14:40)0,0 l/m²92%1033,16,4 km/h (2 Bft) N16,1 km/h (3 Bft) N (15:15)
Kirchberg an der Iller584 m04:30-4,5-4,5 (04:05)-3,7 (14:55)0,0 l/m²87%1023,87,6 km/h (2 Bft) W-SW11,4 km/h (2 Bft) W-NW (00:00)
Kißlegg-Staibshof709 m04:30-4,6-4,9 (01:55)-4,3 (00:30)0,0 l/m²96%1034,70,0 km/h (0 Bft) NO11,3 km/h (2 Bft) NO (00:40)
Kressbronn398 m04:32-2,7-2,7 (04:28)-1,4 (00:00)0,0 l/m²89%1033,68,0 km/h (2 Bft) NO17,7 km/h (3 Bft) NO (02:04)
Kreuzthal-Steinberg-Alpe930 m04:30-3,8-5,9 (01:50)-2,8 (00:00)0,0 l/m²100%1032,01,8 km/h (1 Bft) O-SO5,4 km/h (1 Bft) W-NW (04:30)
Kreuzthal-Steinberggipfel1040 m04:300,3-1,9 (01:50)1,3 (00:00)-70%1032,06,8 km/h (2 Bft) O-SO21,6 km/h (4 Bft) S (04:20)
Kristberg im Montafon (AT)1425 m04:321,4-0,1 (00:54)2,3 (02:14)0,0 l/m²41%1038,91,8 km/h (1 Bft) N-NO8,6 km/h (2 Bft) N (02:08)
Laupheim500 m04:30-4,0-4,3 (01:45)-3,8 (00:10)0,0 l/m²92%1034,611,3 km/h (2 Bft) O-NO16,1 km/h (3 Bft) O-SO (01:30)
Leutkirch-Heggelbach670 m04:30-4,7-4,8 (01:40)-3,9 (00:00)0,0 l/m²94%1033,50,0 km/h (0 Bft) N-NO11,3 km/h (2 Bft) O-NO (02:30)
Lindau-Insel420 m04:30-2,1-2,1 (02:45)-0,8 (14:15)0,0 l/m²92%1034,14,8 km/h (1 Bft) N-NO16,1 km/h (3 Bft) NO (01:50)
Lindau-Stadt412 m04:30-2,3-2,3 (04:30)-1,0 (13:10)0,0 l/m²91%1034,16,4 km/h (2 Bft) N-NO11,3 km/h (2 Bft) N-NW (02:25)
Maierhöfen im Allgäu733 m04:30-7,2-7,2 (04:30)-4,3 (00:25)0,0 l/m²93%1034,10,0 km/h (0 Bft) O8,0 km/h (2 Bft) O (00:15)
Maselheim543 m04:30-4,7-4,8 (02:55)-4,4 (14:45)0,0 l/m²93%1035,26,4 km/h (2 Bft) O-SO16,1 km/h (3 Bft) O-NO (00:35)
Maselheim-Sulmingen548 m04:30-4,4-4,7 (02:05)-4,1 (14:50)0,0 l/m²94%1036,712,9 km/h (3 Bft) O16,1 km/h (3 Bft) O (23:15)
Mietingen-Baltringen528 m04:30-4,0-4,4 (02:10)-3,9 (00:00)0,0 l/m²92%1036,914,5 km/h (3 Bft) O16,1 km/h (3 Bft) O (00:00)
Mindelheim-Apfeltrach620 m04:31-4,0-4,7 (00:39)-3,9 (03:47)0,0 l/m²93%1036,01,6 km/h (1 Bft) O-NO6,4 km/h (2 Bft) S-SO (03:02)
Mittelbiberach577 m04:33-4,7-4,8 (03:14)-4,3 (00:00)0,0 l/m²92%1036,44,8 km/h (1 Bft) O16,0 km/h (3 Bft) NO (00:21)
Neresheim552 m04:00-3,4-4,6 (00:00)-3,4 (04:00)0,0 l/m²100%1032,64,0 km/h (1 Bft) S-SO4,0 km/h (1 Bft) S-SO (04:00)
Neukirch570 m04:30-3,9-4,1 (03:35)-2,7 (14:45)0,0 l/m²96%1034,39,7 km/h (2 Bft) NO16,1 km/h (3 Bft) NO (01:35)
Ochsenhausen, Birkenstraße613 m04:30-4,8-4,9 (04:25)-3,8 (14:50)0,0 l/m²90%1035,70,0 km/h (0 Bft) O-NO0,0 km/h (0 Bft) N-NW (05:00)
Ochsenhausen, Unt. Wiesen575 m04:30-5,1-5,3 (03:55)-4,1 (01:00)0,0 l/m²95%1036,711,3 km/h (2 Bft) O-NO16,1 km/h (3 Bft) O-SO (00:30)
Opfenbach-Göritz561 m04:30-4,9-4,9 (04:13)-3,5 (01:00)0,0 l/m²92%1032,63,2 km/h (1 Bft) N13,0 km/h (3 Bft) N (01:55)
Ostrach619 m04:30-4,0-4,0 (04:30)-3,5 (00:00)0,0 l/m²95%1033,39,7 km/h (2 Bft) NO16,1 km/h (3 Bft) N-NW (02:45)
Ravensburg, Goethestraße428 m04:40-2,8-2,9 (01:25)-2,2 (00:00)0,0 l/m²91%1034,117,7 km/h (3 Bft) NO22,5 km/h (4 Bft) NO (00:45)
Ravensburg, Springerstraße441 m04:30-2,7-2,7 (00:40)-2,3 (00:00)0,0 l/m²77%1031,60,0 km/h (0 Bft) NW2,6 km/h (1 Bft) N-NW (01:05)
Ravensburg-Wernsreute511 m04:30-4,1-4,1 (09:55)-3,3 (13:30)0,0 l/m²95%1037,416,1 km/h (3 Bft) N-NO24,1 km/h (4 Bft) NO (01:10)
Reichenbach an der Fils343 m04:30-5,1-5,7 (03:00)-4,2 (00:00)0,0 l/m²89%1037,23,2 km/h (1 Bft) S-SW4,8 km/h (1 Bft) N-NO (00:05)
Reinstetten559 m04:30-4,7-4,8 (04:20)-3,9 (00:00)0,0 l/m²94%1035,814,5 km/h (3 Bft) O-NO16,1 km/h (3 Bft) O-NO (00:05)
Riedlingen530 m04:30-4,4-4,6 (02:45)-3,8 (00:00)0,0 l/m²95%1035,10,0 km/h (0 Bft) NO17,7 km/h (3 Bft) NO (02:40)
Rißtissen489 m04:30-3,2-3,6 (02:10)-3,2 (00:00)0,0 l/m²95%1032,711,3 km/h (2 Bft) NO14,5 km/h (3 Bft) N-NO (00:00)
Rottweil-Hausen681 m04:29-5,7-5,8 (01:43)-5,0 (00:11)0,0 l/m²90%1035,33,2 km/h (1 Bft) O14,4 km/h (3 Bft) N (00:04)
Schemmerhofen520 m04:30-3,7-3,9 (02:55)-3,4 (00:00)0,0 l/m²96%1034,911,3 km/h (2 Bft) NO12,9 km/h (3 Bft) O-NO (00:50)
Silbertal im Montafon (AT)884 m04:29-4,5-6,3 (00:37)-4,1 (03:47)0,0 l/m²92%1037,90,0 km/h (0 Bft) NW0,0 km/h (0 Bft) N (00:00)
Tettnang466 m04:30-3,7-3,7 (04:25)-2,3 (00:25)0,0 l/m²94%1034,46,4 km/h (2 Bft) NO16,1 km/h (3 Bft) NO (01:10)
Tuttlingen662 m04:26-8,4-8,7 (03:56)-6,8 (00:01)0,0 l/m²77%1032,30,0 km/h (0 Bft) SW0,0 km/h (0 Bft) SW (00:01)
Tuttlingen, Möhringer-Vorstadt711 m04:30-7,2-7,6 (08:00)-5,0 (15:00)0,0 l/m²93%1034,53,2 km/h (1 Bft) NO9,7 km/h (2 Bft) W (15:10)
Ummendorf547 m04:30-4,8-4,9 (04:00)-3,9 (00:00)0,0 l/m²85%1036,311,3 km/h (2 Bft) O17,7 km/h (3 Bft) O (01:00)
Ummendorf-Fischbach558 m04:30-5,1-5,2 (03:35)-4,1 (01:45)0,0 l/m²85%1036,16,4 km/h (2 Bft) O-NO16,1 km/h (3 Bft) O (00:20)
Waldburg707 m04:30-4,7-4,7 (03:05)-4,1 (00:00)0,0 l/m²96%1034,26,4 km/h (2 Bft) N16,1 km/h (3 Bft) N (01:00)
Waltenhofen im Allgäu720 m04:30-4,9-4,9 (04:20)-3,9 (00:35)0,0 l/m²93%1033,73,2 km/h (1 Bft) S12,9 km/h (3 Bft) S (11:45)
Wangen, Hans-Schnitzer-Weg569 m04:30-3,8-3,8 (02:45)-2,4 (00:00)0,0 l/m²66%1033,20,0 km/h (0 Bft) N-NO6,4 km/h (2 Bft) N (01:30)
Wangen, Südring548 m04:34-4,1-4,2 (03:40)-2,9 (01:00)0,0 l/m²93%1033,96,5 km/h (2 Bft) O-NO16,2 km/h (3 Bft) N (01:48)
Weingarten500 m04:30-3,4-3,4 (00:55)-3,1 (00:00)0,0 l/m²91%1034,49,7 km/h (2 Bft) N16,1 km/h (3 Bft) N-NO (01:45)
Winterlingen785 m04:15-8,6-8,6 (04:15)-6,3 (00:15)0,0 l/m²92%1034,61,8 km/h (1 Bft) N4,3 km/h (1 Bft) O (00:10)

Werbung
niederschlagsdatenbank | info | login - erfassung

Sollten Sie Interesse haben, an der Niederschlagsdatenbank teilzunehmen, finden Sie > hier < weitere Informationen.

Niederschlagsdaten der Station Eberhardzell - Lilienweg

Jürgen und Klara Hopp

Niederschlagsstation aufgenommen ins Stationsnetz der Wetterwarte Süd am 03.10.2010
Monat: .
Anmerkung:0,0 = nicht messbarer Niederschlag
 -  = kein Niederschlag

Stationsdaten

Höhe

595 m

Lage

Auf Google Maps ansehen

Beschreibung

Die Niederschlagsstation steht in unserem Garten in einem Baugebiet am nördlichen Ortsrand von Eberhardzell.
< Mai 2019Juli 2019 >

Juni 2019

TagNiederschlagBemerkung
15.35,1
10.18,9
22.6,2
19.4,7
21.2,0
20.1,6
11.1,2
18.1,2
16.1,1
09.1,0
06.0,2
07.0,1
23.0,0
Gesamt:73,3 
Die Spalten "Tag" und "Niederschlag" lassen sich durch Klicken auf den Spaltenkopf sortieren.
Die Angaben sind in l/m².

< Mai 2019Juli 2019 >


Monats- und Jahresniederschlag


Wetterbeobachtungen Legende:

  • Regen
  • Nieselregen
  • Schneeregen
  • Schnee
  • Graupel
  • Eiskörner
  • Hagel
  • Bodennebel
  • Gewitter
  • Nebelnässe
  • Schneegriesel

Grafische Darstellung der Niederschläge der Station Eberhardzell Juni 2019

 
wetterstationen
wetterstationen
- derzeit 81 Stationen
niederschlagsdatenbank
wetterstationen
- kartographische Darstellung
niederschlagsdatenbank
niederschlagsstationen
- derzeit 111 Stationen
niederschlagsdatenbank
niederschlagsstationen
- kartographische Darstellung
 
Do. 23.01.2020 - 7.30 Uhr (MEZ)
1.Biberach
Amriswilstrasse
Reste 1,5cm
 
  treffpunkt & service
--- Anzeigen --------------------------------
zugriffe:
insgesamt: 45.749.261
aktueller monat: 237.821
heute: 188
momentan online: 7
 
 
monatshöchstwert: 653.625
vorheriger monat: 318.382
gestern: 15.758
tageshöchstwert: 51.297
 
wetterwarte süd
 
konradstraße 3
info@wetterwarte-sued.com
roland roth
 
88427 bad schussenried